Weather History for K1F0 - May, 2014

Change the Weather History Date:

Sunday, May 18, 2014

  Actual Average (KADM) Record (KADM)
Temperature  
Mean Temperature 68 °F -  
Max Temperature 80 °F 79 °F 93 °F (2013)
Min Temperature 55 °F 60 °F 50 °F (2002)
Cooling Degree Days 2    
Growing Degree Days 18 (Base 50)    
Moisture  
Dew Point 57 °F    
Average Humidity 71    
Maximum Humidity 94    
Minimum Humidity 42    
Precipitation  
Precipitation 0.00 in - - ()
Sea Level Pressure  
Sea Level Pressure 30.03 in    
Wind  
Wind Speed 8 mph (SE)    
Max Wind Speed 16 mph    
Max Gust Speed 23 mph    
Visibility 10 miles    
Events      
Averages and records for this station are not official NWS values.
T = Trace of Precipitation, MM = Missing Value Source: NWS Daily Summary

Daily Weather History Graph

Daily Weather History Graph

Search for Another Location

Airport or City:

Trip Planner

Search our weather history database for the weather conditions in past years. The results will help you decide how hot, cold, wet, or windy it might be!

Date:

Astronomy

May. 18, 2014 Rise Set
Actual Time 6:24 AM CDT 8:25 PM CDT
Civil Twilight 5:56 AM CDT 8:53 PM CDT
Nautical Twilight 5:22 AM CDT 9:27 PM CDT
Astronomical Twilight 4:46 AM CDT 10:04 PM CDT
Moon No Moon Rise 10:12 AM CDT (5/18)
Length of Visible Light 14h 56m
Length of Day
14h 01m
Waning Gibbous, 81% of the Moon is Illuminated
May 18
Waning Gibbous
May 21
Last Quarter
May 28
New
Jun 5
First Quarter
Jun 12
Full

Hourly Weather History & Observations

Time (CDT) Temp. Heat Index Dew Point Humidity Pressure Visibility Wind Dir Wind Speed Gust Speed Precip Events Conditions
12:15 AM 59.0 °F - 53.6 °F 82% 30.07 in 10.0 mi ENE 6.9 mph - N/A   Unknown
12:35 AM 59.0 °F - 53.6 °F 82% 30.07 in 10.0 mi ENE 6.9 mph - N/A   Unknown
12:55 AM 57.2 °F - 53.6 °F 88% 30.07 in 10.0 mi ENE 6.9 mph - N/A   Unknown
1:15 AM 57.2 °F - 53.6 °F 88% 30.07 in 10.0 mi ENE 5.8 mph - N/A   Unknown
1:35 AM 57.2 °F - 53.6 °F 88% 30.08 in 10.0 mi ENE 5.8 mph - N/A   Unknown
1:55 AM 57.2 °F - 53.6 °F 88% 30.07 in 10.0 mi East 8.1 mph - N/A   Unknown
2:15 AM 57.2 °F - 53.6 °F 88% 30.08 in 10.0 mi East 6.9 mph - N/A   Unknown
2:35 AM 57.2 °F - 53.6 °F 88% 30.08 in 10.0 mi East 4.6 mph - N/A   Unknown
2:55 AM 57.2 °F - 53.6 °F 88% 30.07 in 10.0 mi East 4.6 mph - N/A   Unknown
3:15 AM 55.4 °F - 53.6 °F 94% 30.07 in 10.0 mi East 5.8 mph - N/A   Unknown
3:35 AM 55.4 °F - 53.6 °F 94% 30.08 in 10.0 mi East 5.8 mph - N/A   Unknown
3:55 AM 55.4 °F - 53.6 °F 94% 30.08 in 10.0 mi East 6.9 mph - N/A   Unknown
4:15 AM 55.4 °F - 53.6 °F 94% 30.07 in 10.0 mi East 9.2 mph - N/A   Unknown
4:35 AM 57.2 °F - 53.6 °F 88% 30.07 in 10.0 mi ESE 4.6 mph - N/A   Unknown
4:55 AM 57.2 °F - 53.6 °F 88% 30.07 in 10.0 mi ESE 6.9 mph - N/A   Unknown
5:35 AM 59.0 °F - 55.4 °F 88% 30.06 in 10.0 mi SE 9.2 mph - N/A   Unknown
5:55 AM 59.0 °F - 55.4 °F 88% 30.06 in 10.0 mi SE 8.1 mph - N/A   Unknown
6:15 AM 59.0 °F - 55.4 °F 88% 30.07 in 10.0 mi SE 6.9 mph - N/A   Unknown
6:35 AM 59.0 °F - 55.4 °F 88% 30.07 in 7.0 mi ESE 6.9 mph - N/A   Unknown
6:55 AM 59.0 °F - 55.4 °F 88% 30.07 in 7.0 mi ESE 6.9 mph - N/A   Unknown
7:15 AM 59.0 °F - 55.4 °F 88% 30.07 in 7.0 mi SE 5.8 mph - N/A   Unknown
7:35 AM 59.0 °F - 55.4 °F 88% 30.07 in 10.0 mi SE 8.1 mph - N/A   Unknown
7:55 AM 59.0 °F - 57.2 °F 94% 30.08 in 10.0 mi SE 6.9 mph - N/A   Unknown
8:15 AM 60.8 °F - 57.2 °F 88% 30.08 in 10.0 mi SE 6.9 mph - N/A   Unknown
8:35 AM 60.8 °F - 57.2 °F 88% 30.08 in 10.0 mi SE 8.1 mph - N/A   Unknown
8:55 AM 62.6 °F - 59.0 °F 88% 30.08 in 10.0 mi SE 5.8 mph - N/A   Unknown
9:15 AM 62.6 °F - 59.0 °F 88% 30.08 in 10.0 mi SE 6.9 mph - N/A   Unknown
9:35 AM 62.6 °F - 59.0 °F 88% 30.09 in 10.0 mi SE 4.6 mph - N/A   Unknown
9:55 AM 64.4 °F - 59.0 °F 83% 30.10 in 10.0 mi SSE 3.5 mph - N/A   Unknown
10:15 AM 64.4 °F - 59.0 °F 83% 30.10 in 10.0 mi SSE 8.1 mph - N/A   Unknown
10:35 AM 64.4 °F - 59.0 °F 83% 30.10 in 10.0 mi South 6.9 mph - N/A   Unknown
11:15 AM 66.2 °F - 60.8 °F 83% 30.09 in 10.0 mi South 5.8 mph - N/A   Unknown
11:35 AM 68.0 °F - 60.8 °F 78% 30.08 in 10.0 mi SE 6.9 mph - N/A   Unknown
11:55 AM 68.0 °F - 60.8 °F 78% 30.08 in 10.0 mi SSE 10.4 mph - N/A   Unknown
12:15 PM 69.8 °F - 60.8 °F 73% 30.08 in 10.0 mi South 9.2 mph - N/A   Unknown
12:35 PM 71.6 °F - 60.8 °F 69% 30.07 in 10.0 mi SE 9.2 mph - N/A   Unknown
12:55 PM 73.4 °F - 60.8 °F 65% 30.06 in 10.0 mi SSE 6.9 mph - N/A   Unknown
1:15 PM 73.4 °F - 60.8 °F 65% 30.05 in 10.0 mi South 10.4 mph - N/A   Unknown
1:35 PM 75.2 °F - 60.8 °F 61% 30.04 in 10.0 mi South 11.5 mph - N/A   Unknown
1:55 PM 77.0 °F - 60.8 °F 57% 30.04 in 10.0 mi SSE 10.4 mph - N/A   Unknown
2:15 PM 77.0 °F - 59.0 °F 54% 30.04 in 10.0 mi SSE 10.4 mph 17.3 mph N/A   Unknown
2:35 PM 78.8 °F - 59.0 °F 51% 30.03 in 10.0 mi South 10.4 mph - N/A   Unknown
2:55 PM 78.8 °F - 57.2 °F 47% 30.02 in 10.0 mi South 13.8 mph 19.6 mph N/A   Unknown
3:15 PM 78.8 °F - 57.2 °F 47% 30.02 in 10.0 mi South 10.4 mph - N/A   Unknown
3:35 PM 78.8 °F - 57.2 °F 47% 30.02 in 10.0 mi South 11.5 mph 17.3 mph N/A   Unknown
3:55 PM 78.8 °F - 55.4 °F 44% 30.01 in 10.0 mi South 9.2 mph - N/A   Unknown
4:15 PM 80.6 °F 80.5 °F 55.4 °F 42% 30.00 in 10.0 mi South 11.5 mph 18.4 mph N/A   Unknown
4:35 PM 80.6 °F 80.5 °F 55.4 °F 42% 29.99 in 10.0 mi South 11.5 mph 19.6 mph N/A   Unknown
4:55 PM 80.6 °F 80.5 °F 55.4 °F 42% 29.98 in 10.0 mi South 12.7 mph 19.6 mph N/A   Unknown
5:15 PM 80.6 °F 80.5 °F 55.4 °F 42% 29.98 in 10.0 mi South 16.1 mph 20.7 mph N/A   Unknown
5:35 PM 80.6 °F 80.5 °F 55.4 °F 42% 29.97 in 10.0 mi South 11.5 mph 20.7 mph N/A   Unknown
5:55 PM 78.8 °F - 57.2 °F 47% 29.97 in 10.0 mi SSE 13.8 mph 18.4 mph N/A   Unknown
6:15 PM 78.8 °F - 57.2 °F 47% 29.96 in 10.0 mi SSE 15.0 mph 20.7 mph N/A   Unknown
6:35 PM 78.8 °F - 57.2 °F 47% 29.96 in 10.0 mi SE 12.7 mph 23.0 mph N/A   Unknown
6:55 PM 77.0 °F - 57.2 °F 50% 29.95 in 7.0 mi SSE 13.8 mph 19.6 mph N/A   Unknown
7:15 PM 77.0 °F - 57.2 °F 50% 29.95 in 10.0 mi SSE 13.8 mph 18.4 mph N/A   Unknown
7:35 PM 77.0 °F - 55.4 °F 47% 29.94 in 10.0 mi SSE 13.8 mph 21.9 mph N/A   Unknown
7:55 PM 75.2 °F - 57.2 °F 53% 29.94 in 10.0 mi SSE 10.4 mph 18.4 mph N/A   Unknown
8:15 PM 73.4 °F - 57.2 °F 57% 29.95 in 10.0 mi SSE 11.5 mph - N/A   Unknown
8:35 PM 73.4 °F - 55.4 °F 53% 29.96 in 10.0 mi SSE 10.4 mph - N/A   Unknown
8:55 PM 73.4 °F - 57.2 °F 57% 29.95 in 10.0 mi SSE 9.2 mph 16.1 mph N/A   Unknown
9:15 PM 71.6 °F - 57.2 °F 60% 29.95 in 10.0 mi SSE 10.4 mph 16.1 mph N/A   Unknown
9:35 PM 71.6 °F - 57.2 °F 60% 29.96 in 10.0 mi South 10.4 mph - N/A   Unknown
9:55 PM 71.6 °F - 57.2 °F 60% 29.96 in 10.0 mi South 10.4 mph 16.1 mph N/A   Unknown
10:15 PM 71.6 °F - 57.2 °F 60% 29.97 in 10.0 mi South 10.4 mph - N/A   Unknown
10:35 PM 71.6 °F - 59.0 °F 64% 29.97 in 10.0 mi South 10.4 mph - N/A   Unknown
10:55 PM 71.6 °F - 59.0 °F 64% 29.97 in 10.0 mi South 9.2 mph - N/A   Unknown
11:15 PM 69.8 °F - 59.0 °F 68% 29.97 in 10.0 mi SSE 9.2 mph - N/A   Unknown
11:35 PM 69.8 °F - 59.0 °F 68% 29.97 in 10.0 mi South 11.5 mph - N/A   Unknown
11:55 PM 69.8 °F - 59.0 °F 68% 29.97 in 10.0 mi SSE 8.1 mph - N/A   Unknown